This is the latest recevied weather packets stored in our database for station/object AA0PB. If no packets are shown the sender has not sent any weather packets the latest 10 day(s).
| Time | Temp. | Humidity | Pressure | Rain* | Wind** | Luminosity | Snow |
|---|---|---|---|---|---|---|---|
| 1777825693 | 22.22° C | 62% | 1012.4 hPa | 0 mm | - | 394 W/m² | - |
| 1777825392 | 22.22° C | 61% | 1012.6 hPa | 0 mm | - | 144 W/m² | - |
| 1777825088 | 21.67° C | 62% | 1012.7 hPa | 0 mm | - | 368 W/m² | - |
| 1777824784 | 21.11° C | 63% | 1012.5 hPa | 0 mm | - | 352 W/m² | - |
| 1777824481 | 20° C | 65% | 1012.6 hPa | 0 mm | - | 341 W/m² | - |
| 1777824177 | 20.56° C | 65% | 1012.5 hPa | 0 mm | - | 328 W/m² | - |
| 1777823873 | 20.56° C | 67% | 1012.3 hPa | 0 mm | - | 316 W/m² | - |
| 1777823571 | 20.56° C | 68% | 1012.5 hPa | 0 mm | - | 291 W/m² | - |
| 1777823267 | 20.56° C | 67% | 1012.4 hPa | 0 mm | - | 288 W/m² | - |
| 1777822965 | 20.56° C | 69% | 1012.4 hPa | 0 mm | - | 273 W/m² | - |
| 1777822663 | 20° C | 69% | 1012.6 hPa | 0 mm | - | 247 W/m² | - |
| 1777822361 | 20° C | 69% | 1012.5 hPa | 0 mm | - | 247 W/m² | - |
| 1777822058 | 19.44° C | 74% | 1012.5 hPa | 0 mm | - | 202 W/m² | - |
| 1777821756 | 18.89° C | 74% | 1012.6 hPa | 0 mm | - | 199 W/m² | - |
| 1777821453 | 18.89° C | 74% | 1012.9 hPa | 0 mm | - | 169 W/m² | - |
| 1777821150 | 18.89° C | 75% | 1012.6 hPa | 0 mm | - | 141 W/m² | - |
| 1777820847 | 17.78° C | 77% | 1012.5 hPa | 0 mm | - | 51 W/m² | - |
| 1777820543 | 17.22° C | 80% | 1012.6 hPa | 0 mm | - | 110 W/m² | - |
| 1777820240 | 16.67° C | 81% | 1012.6 hPa | 0 mm | - | 100 W/m² | - |
| 1777819938 | 16.67° C | 82% | 1012.6 hPa | 0 mm | - | 46 W/m² | - |
| 1777819635 | 16.67° C | 84% | 1012.7 hPa | 0 mm | - | 82 W/m² | - |
| 1777819333 | 16.11° C | 85% | 1012.7 hPa | 0 mm | - | 72 W/m² | - |
| 1777819029 | 15° C | 88% | 1012.6 hPa | 0 mm | - | 71 W/m² | - |
| 1777818727 | 14.44° C | 89% | 1012.4 hPa | 0 mm | - | 57 W/m² | - |
| 1777818423 | 13.89° C | 90% | 1012.6 hPa | 0 mm | - | 54 W/m² | - |
* Rain latest hour (hover to see other rain measurements)
** Current wind speed in m/s (hover to see current wind gust speed)